• Processing (Info)

  • MPEC 2023-M82 : 2023 MT1

    The following Minor Planet Electronic Circular may be linked-to from your own Web pages, but must not otherwise be redistributed electronically.

    A form allowing access to any MPEC is at the bottom of this page.


    Read MPEC 2023-M81 Read MPEC 2023-M83


    M.P.E.C. 2023-M82                                 Issued 2023 June 21, 15:05 UT
    
         The Minor Planet Electronic Circulars contain information on unusual
             minor planets, routine data on comets and natural satellites,
             and occasional editorial announcements.  They are published
        on behalf of Division F of the International Astronomical Union by the
              Minor Planet Center, Smithsonian Astrophysical Observatory,
                              Cambridge, MA 02138, U.S.A.
    			  
                 Prepared using the Tamkin Foundation Computer Network
    
                                  MPC@CFA.HARVARD.EDU
                URL https://www.minorplanetcenter.net/    ISSN 1523-6714
    
                                    2023 MT1                                 
    
    
    Observations:
         K23M01T* C2023 06 19.49605217 31 01.001+13 20 14.59         22.78wXEM082F51
         K23M01T  C2023 06 19.50769317 31 01.989+13 20 15.21         21.62wXEM082F51
         K23M01T  C2023 06 19.51936617 31 02.987+13 20 15.37         21.65wXEM082F51
         K23M01T  C2023 06 19.53688117 31 04.563+13 20 15.30         21.31wXEM082F51
         K23M01T  C2023 06 19.60446117 31 11.795+13 20 11.83         21.68GVEM082F52
         K23M01T  C2023 06 19.60527117 31 11.943+13 20 11.84         21.18GVEM082F52
         K23M01T $C2023 06 20.05655017 32 34.785+13 21 16.96         21.5 GVEM082J04
         K23M01T $C2023 06 20.08247017 32 37.127+13 21 18.92         21.4 GVEM082J04
         K23M01T $C2023 06 20.10670217 32 39.426+13 21 19.56         21.2 GVEM082J04
         K23M01T 3C2023 06 20.29377617 33 26.548+13 22 03.05         21.78GVEM082T14
         K23M01T 3C2023 06 20.29475417 33 26.659+13 22 03.34         21.23GVEM082T14
         K23M01T 3C2023 06 20.29573217 33 26.768+13 22 03.64         21.16GVEM082T14
         K23M01T KC2023 06 21.35419317 36 31.100+13 22 43.50         21.40GVEM082I52
         K23M01T KC2023 06 21.36091617 36 31.970+13 22 42.90         21.05GVEM082I52
         K23M01T KC2023 06 21.36522117 36 32.510+13 22 41.80               VEM082I52
    
    Observer details:
    F51 Pan-STARRS 1, Haleakala.  Observers J. Bulger, T. Lowe, P. Minguez, A.
        Schultz, I. Smith.  Measurers K. Chambers, T. de Boer, J. Bulger, J.
        Fairlamb, H. Gao, M. Huber, C.-C. Lin, T. Lowe, E. Magnier, P. Minguez, Y.
        Ramanjooloo, A. Schultz, I. Smith, R. Wainscoat, R. Weryk.  1.8-m Ritchey-
        Chretien + CCD.
    F52 Pan-STARRS 2, Haleakala.  Observers J. Bulger, K. Chambers, T. Dukes, T.
        Lowe, P. Minguez, A. Schultz, I. Smith.  Measurers S. Chastel, J.
        Fairlamb, M. Huber, Y. Ramanjooloo, R. Wainscoat, R. Weryk.  1.8-m
        Ritchey-Chretien + CCD.
    I52 Steward Observatory, Mt. Lemmon Station.  Observer G. J. Leonard.
        Measurers E. J. Christensen, D. Fay, J. B. Fazekas, D. C. Fuls, A. R.
        Gibbs, A. D. Grauer, H. Groeller, J. K. Hogan, R. A. Kowalski, S. M.
        Larson, G. J. Leonard, D. Rankin, R. L. Seaman, A. Serrano, F. C. Shelly,
        K. W. Wierzchos.  1.0-m prime focus + CCD.
    J04 ESA Optical Ground Station, Tenerife.  Observers D. Abreu, F. Ocana, M.
        Micheli, L. Conversi.  Measurers F. Ocana, M. Micheli, R. Kresken, A.
        Knofel.  1.0-m f/4.4 reflector + CCD.
    T14 Canada-France-Hawaii Telescope, Maunakea.  Observers R. Wainscoat, A.
        Acohido, T. Burdullis.  Measurers R. Weryk, R. Wainscoat.  3.6-m Canada-
        France-Hawaii Telescope + CCD.
    
    Orbital elements:
    2023 MT1                                                 Earth MOID = 0.0018 AU
    Epoch 2023 Feb. 25.0 TT = JDT 2460000.5                 Alexandersen            
    M 240.92012              (2000.0)            P               Q                  
    n   0.72750041     Peri.  216.80698     +0.75293307     +0.65115362             
    a   1.2243734      Node   102.28193     -0.57815050     +0.72369726             
    e   0.1941005      Incl.    5.59976     -0.31437841     +0.22860719             
    P   1.35           H   27.01          G   0.15           U   7                  
    Residuals in seconds of arc
    230619 F51  0.2+  0.1+    230619 F52  0.3+  0.0     230620 T14  0.0   0.0
    230619 F51  0.5+  0.2+    230620 J04  0.0   0.0     230620 T14  0.0   0.0
    230619 F51  0.3+  0.1+    230620 J04  0.0   0.0     230621 I52  0.1-  0.1-
    230619 F51  0.0   0.0     230620 J04  0.1+  0.1-    230621 I52  0.2+  0.1-
    230619 F52  0.4-  0.1-    230620 T14  0.0   0.0     230621 I52  0.0   0.9-
    
    Ephemeris:
    2023 MT1                 a,e,i = 1.22, 0.19, 6                   q = 0.9867
    Date    TT    R. A. (2000) Decl.     Delta      r    Elong.  Phase     V
    2023 05 22    17 05 05.4 +08 23 13   0.1391  1.1305   146.3    29.8    24.3
    ...
    2023 06 06    17 13 22.0 +11 38 07   0.08647 1.0869   145.5    31.9    23.2
    ...
    2023 06 14    17 20 59.3 +12 51 41   0.06098 1.0655   143.9    34.2    22.5
    ...
    2023 06 20    17 32 27.1 +13 22 02   0.04268 1.0505   142.9    35.7    21.7
    2023 06 21    17 35 25.7 +13 23 44   0.03970 1.0481   142.8    35.9    21.6
    2023 06 22    17 38 54.4 +13 24 01   0.03672 1.0458   142.8    36.0    21.4
    ...
    2023 06 28    18 22 30.2 +12 25 09   0.01941 1.0324   144.3    35.1    20.0
    ...
    2023 07 06    01 22 56.7 -11 47 15   0.0094691.0165    88.9    90.5    20.1
    ...
    2023 07 21    04 25 14.0 -14 43 15   0.05062 0.9945    63.3   114.1    24.9
    
    M. P. C. Staff               (C) Copyright 2023 MPC           M.P.E.C. 2023-M82
    


    Read MPEC 2023-M81 Read MPEC 2023-M83


    MPEC number:

    Enter an MPEC number in one of the following forms:

    • 1997-B01 (the full form)
    • J97B01 (the packed version of the full form)
    • B01 (the abbreviated form)